Dallas Love, TX

2:58 PM CDT on April 27, 2017 (GMT -0500)
Dallas Love

Weather History for KDAL - November, 2012

Change the Weather History Date:

Friday, November 16, 2012

  Actual Average Record
Temperature  
Mean Temperature 52 °F -  
Max Temperature 64 °F 64 °F 86 °F (2016)
Min Temperature 39 °F 47 °F 28 °F (2014)
Degree Days  
Heating Degree Days 14    
Growing Degree Days 2 (Base 50)    
Moisture  
Dew Point 33 °F    
Average Humidity 55    
Maximum Humidity 87    
Minimum Humidity 26    
Precipitation  
Precipitation 0.00 in - - ()
Sea Level Pressure  
Sea Level Pressure 30.36 in    
Wind  
Wind Speed 3 mph (ENE)    
Max Wind Speed 7 mph    
Max Gust Speed -    
Visibility 10 miles    
Events      
Averages and records for this station are not official NWS values.
T = Trace of Precipitation, MM = Missing Value Source: NWS Daily Summary

Daily Weather History Graph

Daily Weather History Graph

Search for Another Location

Airport or City:

Trip Planner

Search our weather history database for the weather conditions in past years. The results will help you decide how hot, cold, wet, or windy it might be!

Date:

Astronomy

Nov. 16, 2012 Rise Set
Actual Time 6:59 AM CST 5:25 PM CST
Civil Twilight 6:32 AM CST 5:51 PM CST
Nautical Twilight 6:02 AM CST 6:21 PM CST
Astronomical Twilight 5:33 AM CST 6:50 PM CST
Moon 9:52 AM CST (11/16) 8:28 PM CST (11/16)
Length of Visible Light 11h 18m
Length of Day
10h 26m
Waxing Crescent, 12% of the Moon is Illuminated
Nov 16
Waxing Crescent
Nov 20
First Quarter
Nov 28
Full
Dec 6
Last Quarter
Dec 13
New

Hourly Weather History & Observations

Time (CST) Temp. Windchill Dew Point Humidity Pressure Visibility Wind Dir Wind Speed Gust Speed Precip Events Conditions
12:53 AM 45.0 °F 42.6 °F 34.0 °F 65% 30.35 in 10.0 mi SE 4.6 mph - N/A   Partly Cloudy
1:53 AM 44.1 °F - 35.1 °F 71% 30.35 in 10.0 mi Calm Calm - N/A   Partly Cloudy
2:53 AM 39.9 °F 35.8 °F 35.1 °F 83% 30.35 in 10.0 mi ENE 5.8 mph - N/A   Partly Cloudy
3:53 AM 39.9 °F - 35.1 °F 83% 30.35 in 10.0 mi Calm Calm - N/A   Partly Cloudy
4:53 AM 39.9 °F - 35.1 °F 83% 30.35 in 10.0 mi Calm Calm - N/A   Clear
5:53 AM 39.2 °F - 35.6 °F 87% 30.37 in 10.0 mi Calm Calm - N/A   Clear
6:53 AM 39.9 °F - 34.0 °F 79% 30.38 in 10.0 mi Calm Calm - N/A   Partly Cloudy
7:53 AM 42.8 °F 41.1 °F 35.6 °F 76% 30.41 in 10.0 mi NNW 3.5 mph - N/A   Scattered Clouds
8:53 AM 50.0 °F - 36.0 °F 59% 30.43 in 6.0 mi East 3.5 mph - N/A   Haze
9:53 AM 55.9 °F - 33.1 °F 42% 30.42 in 7.0 mi Variable 3.5 mph - N/A   Clear
10:53 AM 57.9 °F - 32.0 °F 37% 30.42 in 8.0 mi East 4.6 mph - N/A   Clear
11:53 AM 61.0 °F - 30.0 °F 31% 30.40 in 10.0 mi East 5.8 mph - N/A   Partly Cloudy
12:53 PM 62.1 °F - 30.0 °F 30% 30.37 in 10.0 mi Variable 6.9 mph - N/A   Partly Cloudy
1:53 PM 64.0 °F - 28.9 °F 27% 30.34 in 10.0 mi Variable 3.5 mph - N/A   Partly Cloudy
2:53 PM 64.9 °F - 28.9 °F 26% 30.32 in 10.0 mi Variable 4.6 mph - N/A   Clear
3:53 PM 64.0 °F - 30.0 °F 28% 30.32 in 10.0 mi NNE 5.8 mph - N/A   Clear
4:53 PM 62.1 °F - 28.9 °F 29% 30.32 in 10.0 mi ENE 4.6 mph - N/A   Partly Cloudy
5:53 PM 60.1 °F - 30.0 °F 32% 30.33 in 10.0 mi Calm Calm - N/A   Scattered Clouds
6:53 PM 51.8 °F - 35.6 °F 54% 30.34 in 10.0 mi East 3.5 mph - N/A   Partly Cloudy
7:53 PM 52.0 °F - 34.0 °F 50% 30.35 in 10.0 mi East 4.6 mph - N/A   Clear
8:53 PM 48.9 °F - 36.0 °F 61% 30.36 in 10.0 mi Calm Calm - N/A   Clear
9:53 PM 46.0 °F - 35.1 °F 66% 30.37 in 10.0 mi Calm Calm - N/A   Clear
10:53 PM 46.9 °F - 34.0 °F 61% 30.37 in 10.0 mi Calm Calm - N/A   Clear
11:53 PM 44.1 °F - 34.0 °F 68% 30.36 in 10.0 mi Calm Calm - N/A   Clear